GFSGL_2pvu_pres_066.txt.gz
Presure
213 246 229 232 230 224 214 207 218 210 203 202 204 202 198 198 195 201 207 210 202 205 209 216 234 211 213 229 195 215 216 212 213 217 216 202 203 208 198 196 195 209 209
201 207 225 249 251 231 233 229 221 214 212 210 204 203 204 202 202 205 206 216 221 245 206 227 228 229 233 201 214 203 204 205 198 197 158 151 207 202 203 206 210 209 209
211 193 189 193 203 243 252 252 279 252 231 221 218 217 219 220 229 230 237 241 224 226 219 219 216 225 213 207 196 196 194 178 194 206 202 195 201 210 203 205 201 206 203
206 191 185 188 192 192 194 199 203 231 191 244 250 248 249 246 231 235 232 221 213 221 227 225 210 202 196 200 203 206 200 188 204 204 202 202 205 202 204 207 204 207 205
191 196 200 145 191 233 195 192 193 187 125 195 190 188 197 199 197 191 186 184 183 184 177 173 205 203 187 175 187 189 171 193 203 202 211 211 211 210 206 206 204 209 207
199 190 188 128 132 192 189 220 179 172 214 209 189 192 193 185 191 198 197 196 211 209 211 206 171 194 190 181 182 203 198 183 181 190 193 215 214 208 212 214 212 214 212
199 192 191 202 197 193 193 200 190 196 192 222 217 213 184 183 217 187 190 198 193 185 190 190 183 204 201 201 189 186 189 197 204 195 197 203 213 217 207 209 212 212 219
183 198 184 201 185 189 184 188 200 193 193 190 196 201 201 221 193 199 194 209 206 209 209 191 198 195 190 187 182 194 193 197 202 205 193 207 212 212 206 210 214 210 220
177 186 193 183 183 196 186 183 193 193 190 195 205 197 209 197 194 192 199 210 202 187 184 195 204 204 196 191 191 203 199 201 198 198 207 212 207 211 214 214 214 219 219
191 199 192 181 193 189 185 188 185 190 200 191 195 196 200 200 195 194 191 188 180 201 195 197 203 191 204 204 205 195 196 194 216 208 208 208 216 215 217 219 219 223 223
197 197 196 197 191 191 195 190 186 190 200 195 191 196 178 182 189 194 189 193 202 201 200 193 194 199 203 203 205 200 203 221 219 211 211 216 217 215 216 221 227 224 219
197 199 194 194 194 202 191 195 190 188 202 198 194 193 196 190 190 186 191 191 192 198 198 200 197 203 203 207 207 213 215 209 215 219 221 218 217 216 221 223 224 219 223
197 194 198 198 196 194 196 200 189 196 205 203 201 194 194 194 191 195 195 197 193 193 212 203 199 213 209 212 209 211 214 217 220 222 224 215 218 223 222 221 219 231 228
195 193 194 194 194 191 193 194 168 196 201 203 202 198 184 193 191 192 199 195 196 210 217 211 210 213 213 216 217 218 223 222 230 220 218 225 226 223 218 231 236 235 233
207 209 209 207 204 208 211 170 208 203 205 208 200 193 194 200 202 198 202 204 198 215 224 210 216 216 217 223 232 224 224 224 227 225 225 226 225 221 229 235 238 244 224
214 215 213 211 205 205 203 205 203 204 203 203 195 206 187 204 206 212 203 212 218 227 224 223 226 222 217 227 226 224 224 221 225 227 229 227 229 231 236 235 248 239 244
204 208 208 203 201 198 192 210 203 210 210 209 203 207 206 206 219 215 225 236 226 229 231 233 228 228 230 231 232 230 228 230 232 227 232 235 235 238 243 247 238 250 250
227 223 216 219 217 214 203 222 222 202 206 199 221 233 236 234 238 236 241 238 239 232 234 236 232 229 232 228 230 238 234 232 235 239 237 243 244 243 253 240 257 249 249
259 258 250 260 267 214 213 201 209 241 226 256 222 256 240 234 237 246 242 245 241 227 225 227 235 247 239 237 235 238 243 249 245 250 248 251 250 252 259 255 252 256 262
198 189 238 226 236 235 239 239 207 228 238 247 247 249 241 240 202 238 237 244 245 244 240 241 247 257 237 244 257 257 268 263 257 249 257 262 251 242 268 273 264 281 280
264 270 229 183 270 238 268 266 257 248 247 252 249 227 208 242 239 231 222 223 251 239 227 257 252 250 269 254 264 276 277 260 240 276 291 273 277 280 286 283 293 317 299
182 190 192 239 218 204 254 236 214 247 243 222 258 239 223 241 235 254 253 236 229 248 254 254 272 270 237 261 271 265 272 269 267 284 260 285 272 286 298 316 298 318 473
271 274 260 256 266 253 252 236 255 264 247 243 271 256 256 246 232 237 250 257 267 262 274 294 281 275 276 281 274 253 250 277 269 281 283 294 303 307 295 371 573 619 465
292 275 270 262 261 267 261 268 268 269 261 242 247 267 253 255 251 259 256 271 289 295 285 284 283 273 275 244 254 298 298 296 285 302 303 297 303 569 628 617 604 592 580
282 278 282 295 294 287 301 292 291 293 292 288 289 298 291 299 272 296 283 297 290 282 287 247 250 298 284 298 297 301 287 298 293 301 343 614 609 601 591 579 569 556 546
280 277 279 280 281 278 289 287 280 275 314 307 306 311 307 309 300 293 293 296 289 288 296 315 310 303 298 288 296 288 295 311 392 575 572 568 562 554 544 536 526 516 507

GFSGL_2pvu_pres_072.txt.gz
Presure
181 194 210 243 264 247 241 239 239 237 235 235 246 243 238 236 234 229 223 224 216 212 207 204 201 198 189 188 186 195 205 207 209 223 222 188 194 203 188 204 208 208 200
190 201 181 190 196 208 225 258 253 238 233 229 227 220 213 211 213 213 205 204 202 199 194 195 195 196 199 203 203 201 202 208 221 182 184 213 212 209 201 190 188 198 198
184 192 194 192 197 189 186 190 201 203 225 249 248 234 229 226 218 212 208 209 210 209 208 207 205 201 198 209 213 235 212 178 188 201 182 175 193 189 212 206 192 194 200
200 189 183 188 193 192 191 192 188 182 181 176 189 193 212 229 227 251 261 255 213 224 211 230 236 232 206 188 194 185 184 185 190 197 207 211 210 213 197 190 201 198 201
197 201 172 187 182 183 195 193 190 198 200 213 202 186 186 181 180 179 186 190 184 127 203 185 197 187 184 183 183 182 206 207 210 212 197 182 188 206 202 199 186 203 198
187 183 164 201 202 186 188 171 190 190 190 188 192 189 192 192 198 208 200 199 214 213 202 199 213 208 214 213 198 200 183 187 186 192 188 199 192 196 190 195 194 193 189
182 187 187 195 187 190 200 196 195 197 193 185 197 182 185 188 188 185 188 186 185 184 184 192 199 184 183 183 192 191 192 201 199 185 195 188 191 191 189 192 195 184 186
190 186 192 190 185 198 195 197 201 197 193 150 183 187 189 184 183 181 182 183 184 182 179 181 181 178 186 178 192 192 190 187 199 190 199 198 186 191 191 190 191 190 195
185 186 191 198 202 196 187 206 194 198 195 203 200 190 198 192 191 190 191 192 193 196 200 200 199 192 194 191 191 203 210 201 203 205 196 192 185 189 194 199 197 192 202
201 203 194 201 201 204 204 194 202 191 207 197 199 197 193 199 193 185 188 188 192 191 195 189 200 199 200 202 195 199 200 205 203 197 195 184 181 195 205 194 208 208 217
192 194 194 199 212 204 198 194 215 201 194 209 205 206 212 208 202 197 195 197 193 195 202 200 200 190 194 201 203 208 209 202 202 194 200 198 205 200 190 211 208 214 229
199 201 201 208 204 200 209 205 213 215 205 200 202 208 204 218 221 213 201 205 207 208 205 205 202 211 209 198 203 211 195 193 183 205 205 197 193 212 201 213 225 243 239
190 201 208 203 202 206 213 214 206 206 199 207 204 212 203 223 216 214 212 211 218 215 213 213 212 208 207 212 211 194 196 195 204 206 207 204 212 195 226 229 211 237 235
206 219 205 201 208 201 208 204 201 200 209 209 210 210 217 228 220 215 215 227 201 205 203 203 203 191 205 206 189 205 206 212 208 189 212 224 255 249 225 250 239 229 227
213 209 206 208 210 208 208 210 207 212 211 210 214 214 229 224 209 212 190 196 202 203 206 204 202 196 192 189 207 212 216 213 218 245 240 224 225 209 215 243 244 221 201
221 217 214 214 212 212 213 216 215 218 243 236 229 233 224 225 215 212 209 214 198 203 210 183 196 200 203 205 186 207 220 251 243 232 239 187 221 237 249 222 206 237 260
223 243 235 235 239 237 233 239 231 212 219 232 237 230 232 212 220 214 207 216 223 217 207 209 210 208 226 181 238 238 248 220 208 239 202 197 223 255 240 249 251 238 231
234 230 244 249 248 241 237 228 226 234 239 234 225 226 220 209 226 225 218 203 185 215 226 217 183 196 182 183 246 244 205 242 237 246 233 234 236 250 235 257 237 253 247
197 255 233 251 250 251 253 248 244 233 182 231 200 233 198 229 233 180 236 239 237 261 223 233 253 189 244 249 231 253 242 239 252 242 238 243 242 249 252 243 247 255 253
268 276 286 292 290 288 291 282 271 258 269 257 245 238 237 236 224 203 196 261 270 262 257 241 241 248 239 242 240 249 231 241 244 234 231 251 245 245 271 274 268 272 260
308 313 316 151 168 314 322 314 310 326 284 296 286 273 260 262 259 251 249 250 259 245 251 239 233 250 253 240 239 237 254 238 249 256 243 240 262 263 266 265 264 274 253
208 292 296 295 299 298 303 299 217 259 306 288 329 280 260 254 254 263 263 250 251 240 240 257 245 254 252 245 247 247 245 244 254 263 276 274 265 274 254 263 295 264 332
329 293 290 292 289 288 289 285 287 278 285 308 288 303 266 286 287 274 263 257 258 253 259 250 254 273 266 247 253 250 262 267 268 288 294 285 293 301 287 300 318 336 313
319 286 308 310 289 292 285 297 295 278 272 292 287 308 279 296 304 293 280 270 267 266 279 281 278 277 277 283 292 296 301 314 318 314 306 305 294 339 329 286 310 324 402
310 309 323 311 275 293 286 279 278 283 288 281 302 310 295 298 293 284 294 294 288 287 289 293 326 329 261 323 296 310 315 314 338 334 330 298 293 308 325 328 388 367 354
320 318 333 337 327 305 300 294 280 283 290 288 299 287 266 272 286 292 283 272 305 318 331 329 325 324 322 317 314 307 299 293 293 301 310 324 358 388 411 382 513 499 488

GFSGL_2pvu_pres_075.txt.gz
Presure
190 198 188 202 239 292 265 244 239 206 203 206 211 211 210 208 203 198 242 216 240 217 235 227 231 238 219 216 203 202 198 191 191 190 190 193 215 210 193 186 188 184 194
209 189 192 198 186 192 203 234 255 261 252 244 242 241 243 242 239 238 236 233 233 228 237 230 220 211 202 202 198 200 196 197 210 220 212 232 234 184 184 185 181 207 211
197 203 196 186 190 201 192 186 190 195 205 213 228 256 258 245 236 230 227 226 219 215 214 212 209 209 207 203 179 209 213 213 242 232 184 185 184 186 203 200 207 196 191
199 198 204 204 202 184 186 191 200 197 198 194 193 194 192 193 200 216 224 249 247 245 241 242 236 236 232 201 231 207 234 206 190 190 191 203 213 199 201 188 188 201 186
195 195 199 198 210 201 206 198 184 178 187 186 194 199 195 209 213 215 191 153 183 182 180 181 181 182 183 197 198 199 197 197 211 208 208 195 183 200 190 197 201 194 190
190 193 185 196 196 196 196 191 188 191 204 201 200 198 198 194 193 189 194 200 194 210 209 194 209 202 202 203 194 190 182 189 190 183 173 176 179 194 195 205 206 201 202
186 190 191 192 175 180 181 183 185 190 186 178 201 197 206 196 188 202 195 188 182 186 174 190 189 186 186 182 182 182 185 182 180 183 185 195 192 190 195 196 198 203 201
191 189 197 190 189 186 185 184 189 191 196 198 192 188 192 191 196 196 202 199 195 194 195 189 192 194 194 194 196 200 195 195 197 195 202 199 194 194 194 188 203 205 199
191 193 195 191 199 193 198 194 196 203 192 195 197 187 193 194 201 181 196 197 200 194 194 194 194 198 193 184 192 189 193 191 192 193 188 194 196 195 197 197 203 199 197
191 196 191 201 197 188 190 190 194 196 196 200 210 204 193 209 202 201 189 202 200 206 211 207 212 225 196 200 194 196 194 199 198 197 194 196 201 210 204 211 207 179 202
194 192 199 201 194 193 200 197 176 202 188 201 205 212 191 218 214 216 207 215 209 198 204 211 210 227 222 221 212 206 207 216 222 220 218 217 215 204 205 205 181 209 210
201 202 198 204 203 194 198 208 196 189 202 197 211 199 200 198 208 208 206 196 201 205 207 204 203 222 227 223 205 215 233 228 204 201 209 212 205 214 194 208 206 210 202
198 192 201 211 211 206 203 203 204 208 211 211 208 208 203 213 200 203 197 196 200 203 203 206 209 228 215 203 197 192 189 201 208 207 194 210 211 206 205 217 198 214 220
213 210 212 213 210 206 208 206 210 211 216 209 209 206 207 201 199 201 202 203 201 246 216 225 222 211 218 192 199 207 213 198 185 220 205 207 207 208 191 225 214 259 262
208 204 208 211 224 224 219 218 215 207 204 206 209 214 212 212 212 212 217 218 224 201 225 230 214 228 208 226 221 220 207 206 208 211 214 187 218 220 184 211 241 243 191
210 209 213 218 213 220 214 213 211 213 210 214 219 240 219 230 234 225 225 232 235 193 193 211 229 232 218 230 231 187 203 204 214 208 183 214 182 194 277 259 256 256 251
212 215 218 214 215 219 232 215 212 220 231 236 233 228 225 225 221 238 231 226 233 221 224 225 228 229 231 217 196 183 219 221 226 223 194 235 238 278 265 263 259 228 250
215 220 226 223 224 240 244 243 244 238 244 244 244 247 245 244 238 238 236 229 205 175 229 229 186 231 218 217 230 221 229 228 237 238 244 279 266 270 245 263 249 255 248
234 233 228 247 236 211 225 244 192 255 223 262 263 265 265 254 250 244 240 247 251 240 233 236 237 244 243 248 262 253 260 256 264 267 267 253 253 249 261 258 249 262 232
247 250 249 249 254 171 186 263 256 283 276 303 316 285 291 282 323 329 310 293 291 280 277 287 272 261 270 264 266 259 259 217 263 258 259 251 260 261 254 262 245 251 260
257 271 273 283 293 275 308 325 322 235 316 307 313 318 311 326 301 328 318 190 227 283 273 255 197 257 263 275 259 268 253 264 262 267 261 262 269 265 267 266 249 264 260
297 292 324 323 318 313 311 309 302 299 298 300 301 300 300 293 298 301 280 295 271 277 254 254 261 261 265 262 264 263 260 264 259 264 264 262 271 259 257 255 263 274 261
363 365 360 361 362 275 341 339 374 318 317 305 305 306 289 289 293 289 280 292 298 300 295 294 290 281 272 291 301 296 274 267 261 255 276 276 296 290 306 306 300 292 325
346 340 343 343 345 343 334 335 323 326 321 318 317 298 305 315 302 283 295 272 288 274 271 275 305 272 294 320 294 316 315 296 306 302 267 271 267 281 325 327 311 294 317
326 324 325 328 318 319 336 316 320 318 306 307 311 317 334 332 262 310 269 267 289 273 288 304 306 305 314 331 258 261 261 285 298 326 312 302 293 285 311 316 322 339 374
294 294 293 294 297 295 297 300 302 304 308 311 315 305 319 315 325 342 338 321 308 302 304 308 304 302 305 313 308 297 291 288 286 295 308 307 318 323 366 410 392 355 417

GFSGL_2pvu_pres_078.txt.gz
Presure
191 184 187 192 193 236 286 256 196 203 199 187 189 185 185 190 189 190 193 194 191 183 191 191 194 202 197 201 247 217 233 225 219 211 157 193 192 193 191 211 212 232 220
173 179 172 172 189 189 180 202 260 267 261 247 194 198 198 195 197 198 198 199 248 248 237 239 241 237 232 222 220 216 216 212 211 201 204 201 201 206 197 223 198 189 189
197 194 197 183 205 181 186 185 190 181 186 193 227 242 250 258 261 253 250 248 245 237 236 229 226 224 219 217 213 211 209 205 204 209 207 212 192 221 207 198 196 197 208
176 190 201 182 197 193 210 211 179 180 183 189 190 190 190 187 186 184 187 186 187 187 187 178 190 221 220 188 188 190 187 187 183 183 186 204 200 200 199 204 203 185 175
193 195 184 190 191 199 191 191 202 199 193 195 196 201 205 191 195 190 194 194 188 193 201 191 200 197 196 195 202 148 149 205 208 208 213 198 194 181 180 189 183 187 188
184 190 197 183 182 193 186 198 196 192 188 180 181 183 184 176 181 184 192 194 197 202 192 193 195 193 190 187 182 182 188 186 186 185 183 185 182 188 190 191 195 200 195
191 190 187 193 185 187 191 153 195 193 190 184 185 182 188 192 192 181 186 188 199 196 195 196 195 199 200 196 196 193 193 193 191 195 192 191 188 190 193 180 195 193 192
193 182 182 189 193 198 192 197 174 193 199 192 191 187 190 201 204 197 197 214 188 186 201 200 186 193 209 193 194 205 206 204 202 209 205 216 207 196 198 195 199 196 194
184 190 193 190 193 189 185 178 202 191 202 204 202 194 195 196 203 189 204 203 211 202 199 194 191 207 210 197 194 202 202 196 203 211 210 213 223 215 214 205 200 201 202
193 195 201 195 192 192 192 192 194 195 199 194 193 188 192 193 211 210 195 202 217 203 193 201 224 208 209 212 211 205 206 198 206 206 194 210 219 216 215 220 201 248 242
184 191 193 193 198 197 199 196 197 190 171 194 199 210 214 205 190 193 197 202 201 214 224 201 212 197 208 195 196 198 200 195 202 210 223 225 232 218 217 222 209 197 205
201 198 198 201 196 194 195 195 194 192 193 204 206 198 196 197 198 201 203 207 226 205 208 213 179 213 181 202 196 194 233 204 207 205 208 226 219 217 212 208 217 221 196
184 190 200 193 192 186 191 201 200 203 209 201 199 208 208 210 207 212 227 217 215 223 208 210 190 206 174 190 195 196 191 206 197 214 205 225 175 222 220 210 227 187 220
203 203 203 204 201 205 197 210 204 203 210 203 202 205 212 214 214 209 207 204 197 196 193 199 202 203 206 219 213 208 212 197 219 232 214 216 207 225 219 211 218 213 225
201 207 207 212 208 218 215 210 210 202 206 203 206 203 199 206 204 205 205 207 208 207 206 207 209 216 234 220 224 223 222 221 242 220 236 187 223 211 219 213 215 214 221
223 215 214 213 213 212 212 218 211 206 209 211 217 219 215 214 216 217 216 214 236 239 224 234 233 224 229 233 235 237 236 215 232 237 227 219 212 222 222 220 222 216 225
216 210 213 220 223 219 207 205 219 219 219 220 221 220 227 227 224 237 231 244 239 241 235 238 237 235 230 236 234 236 242 230 205 228 225 235 226 228 232 236 231 226 234
221 214 226 223 216 217 219 221 221 223 223 226 227 229 231 246 220 241 251 238 234 245 247 250 254 251 252 251 247 247 244 243 240 233 230 237 235 243 250 257 254 212 259
221 215 217 220 219 222 226 228 228 206 206 241 245 227 216 203 212 248 249 252 248 198 277 279 275 266 275 281 276 275 261 257 264 264 256 247 262 251 248 241 253 261 266
231 228 238 237 212 238 240 231 247 246 260 257 253 249 264 268 281 298 300 281 307 326 292 325 326 325 315 292 295 295 286 271 263 265 263 257 251 252 261 265 291 274 267
244 239 238 230 245 250 244 232 277 263 279 282 376 348 354 319 312 313 311 307 303 304 306 310 306 301 303 311 317 310 323 299 299 278 269 264 269 279 270 281 277 262 249
245 247 245 249 276 268 178 337 386 379 377 367 368 303 370 336 373 379 355 308 285 297 278 283 290 287 303 289 302 291 296 305 306 298 294 287 282 283 271 277 253 257 273
269 260 261 272 315 323 350 377 366 358 356 349 349 349 344 348 336 342 340 328 320 312 311 311 327 319 283 293 297 298 301 286 279 278 288 314 266 287 286 281 273 262 307
298 290 299 328 331 326 319 317 313 315 314 316 318 317 316 331 334 333 323 338 326 320 326 331 325 332 329 340 327 320 258 269 309 323 286 284 292 308 263 315 306 314 307
324 319 309 305 301 299 297 292 293 291 292 292 295 299 300 297 293 296 299 306 308 315 309 314 312 308 309 310 312 311 312 312 315 315 305 307 302 304 297 293 285 305 297
296 294 292 288 289 289 289 288 286 283 279 278 276 277 277 278 280 281 281 281 283 285 286 287 289 289 291 291 290 291 291 293 292 289 292 296 299 305 309 318 315 318 355

GFSGL_2pvu_pres_084.txt.gz
Presure
189 185 193 197 219 246 197 183 192 183 177 178 186 187 194 197 194 186 177 179 179 181 186 177 171 172 179 180 176 178 193 185 208 203 242 237 235 224 219 218 218 220 207
173 188 189 192 190 193 206 228 243 247 192 194 180 180 183 188 184 179 188 185 184 186 179 182 184 184 182 190 188 184 259 255 220 212 196 197 193 192 185 183 181 184 208
199 175 176 183 207 193 184 191 197 208 217 227 271 204 191 191 184 183 184 183 184 185 183 183 186 222 215 217 217 208 202 204 206 190 186 193 196 180 191 191 189 192 192
196 190 179 169 164 190 186 195 205 189 191 193 198 208 215 223 227 229 227 219 214 215 216 213 203 198 196 191 191 186 188 188 199 200 193 198 197 191 194 192 196 197 194
195 204 200 202 209 192 174 180 204 195 190 182 187 183 187 189 189 188 185 179 176 195 204 189 194 191 196 198 201 203 188 193 195 195 199 196 193 196 194 197 191 193 184
190 196 198 198 198 200 201 204 190 189 195 190 200 204 203 204 203 203 200 196 181 181 198 200 177 172 188 190 186 183 185 189 209 209 182 174 173 181 195 182 182 199 203
191 188 190 189 181 188 188 189 190 192 167 159 177 191 197 194 194 199 197 193 196 165 194 190 186 185 182 189 193 188 188 195 204 200 199 197 197 193 201 207 204 206 196
196 196 192 187 194 187 189 184 183 185 190 192 192 194 194 194 200 198 193 194 194 195 200 194 194 200 194 185 206 202 212 206 199 204 205 198 189 193 198 220 216 190 204
193 192 193 190 188 192 184 191 193 191 189 196 191 183 182 181 191 201 200 208 194 183 194 195 198 200 198 205 212 210 201 208 205 201 205 203 210 214 183 214 179 202 225
183 183 192 196 198 192 194 189 191 191 190 185 190 194 200 191 195 189 185 195 203 209 205 193 176 199 193 188 200 197 209 198 214 205 200 188 202 234 229 209 175 204 205
200 199 194 185 193 193 195 191 192 192 190 193 193 186 193 197 196 206 202 202 195 201 196 198 201 212 198 194 204 201 214 207 202 199 206 214 193 208 205 198 219 207 205
192 195 190 191 192 193 194 198 197 201 201 200 200 196 201 196 196 200 197 210 201 202 197 202 200 196 195 198 210 215 209 206 200 192 201 202 202 210 204 204 202 203 203
192 196 191 190 191 203 193 206 189 192 195 194 193 191 212 207 211 186 193 196 201 203 196 209 205 201 200 208 208 203 204 207 201 202 202 203 204 204 211 208 210 213 214
187 192 194 185 182 190 194 193 193 195 202 194 203 202 202 210 213 209 208 198 194 205 198 203 206 209 202 202 208 204 221 213 208 204 200 211 199 208 204 206 216 220 214
190 179 195 201 200 207 202 198 203 198 204 208 211 205 205 217 215 203 207 196 207 210 203 200 205 208 202 232 207 218 215 211 197 215 218 221 222 220 213 219 228 220 221
182 213 209 182 193 200 202 193 222 210 204 211 213 215 215 210 212 208 208 212 206 212 215 211 214 221 217 205 211 223 221 220 222 231 236 227 227 238 235 226 244 241 253
214 209 211 204 221 221 214 216 202 218 211 214 214 214 218 223 214 212 215 217 223 214 217 209 215 230 246 225 228 244 231 231 246 243 243 244 247 261 267 269 265 248 247
210 210 213 215 214 213 215 225 221 216 216 219 221 224 230 224 194 214 223 229 220 215 220 243 228 225 231 263 258 246 251 259 265 266 276 272 263 264 272 285 286 269 269
225 215 219 220 222 219 226 227 224 225 228 225 216 220 221 218 223 218 222 228 235 230 243 231 243 244 250 253 262 277 280 275 329 402 361 366 337 365 368 373 373 358 341
219 224 223 231 235 233 231 224 230 218 217 228 229 227 221 219 228 233 229 243 240 239 167 256 265 194 277 273 286 324 345 343 341 340 357 356 374 381 377 359 351 341 340
232 221 221 232 225 234 234 224 241 234 227 234 238 256 249 247 263 253 225 145 262 261 258 248 286 333 283 309 314 304 305 301 296 295 299 306 306 313 318 330 356 348 336
232 235 229 239 238 234 231 229 240 243 257 253 252 266 262 251 248 251 254 255 255 287 274 283 299 313 310 307 304 296 290 290 288 282 275 274 275 278 278 280 287 292 293
237 238 238 173 140 247 252 260 255 254 245 248 244 242 253 260 265 273 280 296 287 303 324 316 311 298 285 282 281 284 287 285 286 288 290 297 299 295 289 285 282 296 282
249 243 250 255 257 253 252 257 250 244 250 258 265 275 281 280 330 293 281 325 315 312 304 286 289 287 289 290 295 301 303 305 307 326 334 338 343 342 334 326 322 322 322
264 264 266 265 262 258 261 272 281 286 289 299 322 283 283 285 320 310 310 304 284 290 282 294 295 298 303 307 320 340 367 364 376 350 370 354 345 348 359 360 355 342 356
301 304 304 303 301 297 290 288 278 283 290 286 326 324 316 312 299 287 290 288 293 296 301 310 336 360 362 395 391 385 383 364 358 359 353 358 378 363 355 358 364 363 373

GFSGL_2pvu_pres_087.txt.gz
Presure
193 192 193 256 200 191 194 194 200 202 195 196 191 194 210 210 207 207 205 202 198 192 192 191 206 194 181 179 176 173 181 180 175 191 182 192 202 236 249 229 225 202 206
202 184 191 183 220 232 200 190 186 182 184 200 199 186 178 178 178 175 190 193 191 191 192 188 178 180 179 179 181 192 193 195 184 186 232 221 225 219 198 210 200 198 192
196 194 184 187 195 196 210 206 199 190 191 185 186 186 186 183 182 181 177 179 176 183 186 186 184 181 183 187 190 190 187 190 205 210 202 198 188 184 184 181 189 205 204
187 197 193 179 180 183 186 187 191 194 216 213 198 194 193 189 187 183 182 182 180 182 183 183 186 188 190 196 211 203 212 206 186 185 183 182 193 202 184 194 198 186 192
193 186 194 198 184 183 179 181 189 190 185 185 192 198 210 213 215 216 212 214 214 214 209 208 207 206 205 206 194 184 188 185 177 178 168 195 194 182 194 201 209 204 205
191 187 192 194 200 189 180 172 174 167 180 163 199 194 194 184 179 172 183 181 182 186 186 185 186 187 186 170 160 181 197 202 193 191 187 184 189 192 183 183 189 199 196
193 193 199 200 197 202 201 199 189 196 202 196 177 172 188 198 195 161 158 201 200 201 201 201 202 200 199 195 197 196 194 193 191 206 201 196 196 205 202 201 206 195 204
188 184 184 187 186 188 193 195 197 200 195 195 196 189 185 182 186 192 190 184 186 191 189 194 195 193 193 193 193 199 203 196 194 196 200 192 200 215 207 194 191 211 204
195 191 190 189 189 186 186 185 191 193 187 188 189 192 186 185 195 184 189 192 193 188 189 190 197 198 198 198 189 186 188 194 192 187 186 195 199 190 191 191 203 169 212
192 186 184 186 189 190 197 192 184 189 193 194 191 193 189 191 191 189 189 192 189 189 193 191 191 188 189 183 181 198 203 201 198 192 200 208 203 201 202 210 217 208 215
194 194 193 188 184 184 197 199 198 196 197 197 193 193 191 191 193 183 197 193 185 184 184 199 196 201 202 198 188 197 202 199 203 188 205 195 203 197 201 204 203 205 203
190 195 197 201 194 195 189 181 193 196 188 193 189 188 187 181 186 188 197 194 195 202 202 193 217 204 215 210 193 198 203 201 200 206 202 202 202 208 211 206 201 203 207
193 194 192 187 184 192 198 185 189 192 189 192 191 197 207 203 209 205 203 198 207 211 197 213 212 197 196 206 209 206 199 201 201 207 212 205 204 207 200 211 213 208 218
199 200 195 189 204 197 196 200 184 193 202 206 194 192 186 193 204 203 204 201 201 202 204 208 207 205 211 212 207 203 212 200 211 211 207 203 213 207 206 210 210 218 221
200 202 177 193 190 200 202 191 203 207 199 195 191 195 202 198 207 208 208 216 216 205 211 213 214 216 214 203 207 221 212 211 215 211 205 220 210 210 216 216 217 219 225
197 201 203 191 191 199 208 207 200 196 181 184 200 199 201 190 182 193 206 207 224 210 212 210 213 217 218 226 236 233 219 214 221 220 222 232 228 218 231 247 229 263 266
211 190 197 214 213 203 215 205 203 209 200 201 191 180 183 195 200 216 212 218 222 233 221 224 217 230 224 215 217 213 216 217 221 215 215 235 237 240 268 274 261 253 293
196 206 223 204 247 216 219 193 194 201 181 195 195 205 207 220 221 224 221 219 224 218 218 231 223 217 218 217 216 232 242 227 233 269 240 275 232 265 273 288 349 344 329
210 221 209 223 210 222 222 225 218 215 218 216 228 232 228 223 226 228 231 233 235 224 234 220 226 225 225 235 246 268 262 265 247 263 260 270 295 295 316 333 321 312 304
217 222 228 220 224 223 219 224 225 218 227 232 230 232 235 225 223 231 227 240 235 231 227 226 234 242 217 257 252 256 260 261 274 285 320 292 348 334 318 297 293 287 284
225 221 222 224 221 216 216 227 226 232 238 235 228 229 241 239 236 240 238 239 230 235 247 249 271 257 243 252 263 258 284 292 298 292 336 317 293 291 287 279 280 282 297
217 211 216 229 233 232 233 235 240 241 232 227 236 236 240 246 242 250 236 241 246 260 258 266 265 265 273 278 278 294 288 295 328 308 289 287 283 285 293 293 299 306 313
236 235 231 232 238 240 242 245 239 235 233 248 243 234 238 242 251 263 263 265 268 270 272 276 282 303 301 293 278 324 319 301 287 286 287 296 301 313 326 349 360 392 377
248 247 243 244 245 248 248 250 250 248 248 258 260 255 266 265 266 274 277 282 316 308 305 296 277 306 331 322 314 297 285 289 294 307 301 392 402 399 395 395 393 371 368
254 262 265 265 267 265 265 265 266 265 266 267 271 278 282 299 316 306 297 289 283 286 325 327 322 311 299 290 287 298 308 364 408 391 400 390 379 374 363 423 416 413 411
265 266 267 268 270 283 285 292 295 300 305 296 294 274 283 290 293 315 329 327 322 315 305 293 295 307 313 332 389 395 388 383 389 397 380 418 410 387 391 400 401 398 397

GFSGL_2pvu_pres_093.txt.gz
Presure
201 208 207 205 179 219 209 205 210 221 199 192 204 203 198 197 196 177 182 183 182 182 170 179 185 190 202 199 183 173 176 183 201 198 194 191 188 182 180 178 177 187 190
208 204 201 212 183 184 209 202 215 205 209 202 195 188 201 174 196 191 180 181 170 172 188 184 193 201 184 183 202 203 193 191 188 182 180 184 184 184 182 183 185 188 194
189 204 196 208 175 192 205 203 195 207 206 202 194 191 182 196 183 182 180 187 178 191 184 209 189 184 180 178 178 178 183 185 184 182 178 178 182 185 182 190 223 195 169
193 202 197 192 184 197 206 197 198 193 192 208 199 182 188 188 180 187 187 188 186 192 193 189 187 181 182 184 180 182 188 181 178 181 179 190 189 190 194 192 208 185 189
196 200 196 185 188 195 207 181 194 192 191 190 190 197 194 183 186 181 187 183 182 174 183 185 181 179 179 188 185 184 185 163 159 182 182 191 187 200 190 188 191 196 194
199 202 194 183 198 219 194 201 180 193 185 187 192 188 183 200 192 181 181 180 182 180 178 164 177 185 184 176 158 190 185 170 210 194 196 198 187 193 192 188 190 187 191
200 198 187 195 186 200 186 216 190 185 185 188 183 178 187 186 184 184 183 181 178 178 173 187 162 171 183 182 185 180 190 203 195 198 193 191 192 189 185 183 185 181 179
200 192 194 185 194 200 189 193 192 179 181 192 187 180 178 178 181 184 180 186 182 185 182 178 178 172 175 172 181 179 192 192 193 190 181 184 183 183 182 183 182 183 193
200 189 186 194 185 193 202 191 192 192 187 184 183 200 197 184 183 184 174 180 179 180 180 192 181 185 188 200 200 193 188 184 180 177 182 185 185 189 186 184 188 175 195
192 195 193 190 193 191 182 191 162 183 192 189 190 191 185 191 191 184 183 183 188 188 189 193 198 197 196 196 185 181 182 187 181 183 183 176 192 186 181 193 183 182 189
192 195 193 189 191 193 188 181 187 192 181 180 177 189 192 193 192 197 199 194 194 192 192 186 182 183 183 182 184 182 184 184 187 188 189 181 187 198 188 190 193 189 202
197 191 195 193 180 199 184 196 173 170 183 184 187 187 172 184 178 167 175 180 179 186 186 186 183 182 187 184 190 178 182 186 183 193 199 190 194 183 191 199 195 196 195
185 198 182 189 188 187 191 183 183 206 186 187 183 191 183 183 184 160 185 184 194 178 174 195 183 172 173 191 182 184 184 183 180 195 191 190 184 184 195 204 194 210 199
201 185 189 192 183 195 193 191 199 195 204 196 238 226 184 186 197 194 190 172 176 195 165 174 180 184 178 181 185 176 182 177 202 196 183 206 184 218 189 212 209 204 200
195 197 195 190 198 185 190 194 193 187 195 200 212 221 187 191 186 188 189 194 186 188 183 182 181 196 198 194 205 214 206 193 201 201 195 204 190 205 197 208 214 206 205
205 190 202 195 197 195 190 192 192 186 175 194 183 202 199 196 217 213 202 204 179 194 202 201 203 210 202 214 201 209 203 205 207 200 213 221 201 211 216 205 215 207 213
197 200 202 209 215 209 192 193 196 195 201 209 188 187 205 194 222 219 209 197 204 203 201 209 217 211 207 198 212 223 220 208 213 196 197 213 219 213 204 212 218 237 247
217 203 197 199 200 197 207 205 191 189 192 202 204 195 213 205 203 221 216 230 226 205 210 208 218 213 219 213 214 209 201 201 213 224 210 216 206 218 238 229 249 230 236
212 212 209 195 197 204 200 194 198 206 198 196 203 205 205 204 210 217 206 229 214 226 227 215 208 231 225 214 230 229 205 220 233 216 231 244 242 236 237 250 257 249 257
220 213 207 222 207 219 213 205 206 214 219 212 211 213 215 214 212 214 225 223 218 215 220 234 229 216 215 231 226 219 242 232 228 222 238 241 245 249 253 248 262 250 274
216 215 215 215 224 227 217 216 217 220 226 217 223 214 213 212 216 220 227 206 227 232 207 227 233 224 206 202 205 227 237 242 236 243 246 246 261 242 258 265 251 269 299
217 216 223 214 220 226 224 220 226 215 214 212 209 209 225 206 227 226 225 225 230 202 157 225 234 234 241 236 232 246 237 234 250 254 261 260 253 250 271 255 316 317 327
230 231 236 236 234 233 226 227 227 224 226 224 219 222 222 227 229 215 220 230 237 234 237 221 236 230 240 238 241 248 244 254 239 253 261 265 297 339 338 267 258 324 320
238 241 239 239 238 239 239 197 197 240 240 241 240 240 239 241 240 242 238 230 234 244 248 244 249 240 250 251 247 240 263 249 262 283 255 256 254 316 326 329 321 429 388
252 251 251 254 256 220 259 257 255 251 248 246 248 249 234 237 248 245 230 248 253 253 253 251 234 250 234 258 255 285 297 331 299 262 324 332 311 390 336 368 377 440 431
239 241 260 261 255 251 258 263 250 252 252 255 253 250 257 260 264 262 262 250 252 260 250 267 252 263 302 310 300 334 337 334 318 337 460 391 448 431 406 425 416 413 408

GFSGL_2pvu_pres_096.txt.gz
Presure
257 249 225 210 217 223 198 223 216 222 232 212 210 200 201 205 192 206 204 214 211 198 202 184 171 172 182 175 181 183 178 182 175 166 180 187 170 196 195 194 185 180 181
253 239 222 222 199 211 189 197 217 210 221 221 192 212 225 206 201 206 216 201 206 193 192 188 182 168 174 183 188 173 176 175 173 185 172 193 194 189 180 181 179 187 183
239 225 212 218 213 204 192 186 222 203 206 226 216 195 207 210 205 214 200 192 198 190 189 190 189 190 188 187 194 188 179 193 191 190 184 179 183 182 189 188 175 183 195
233 220 208 161 208 210 189 193 219 199 205 215 212 199 213 195 194 201 195 185 177 187 190 181 178 190 190 178 198 181 184 178 178 181 181 187 177 188 177 166 174 183 212
224 217 205 158 206 199 183 251 206 204 194 204 211 202 194 200 192 201 184 193 188 184 178 183 178 184 173 185 177 194 184 181 172 183 176 187 178 163 169 174 187 196 199
205 217 193 168 205 202 189 261 175 204 186 203 209 221 195 198 192 195 188 174 203 184 180 176 177 180 166 185 179 183 180 192 185 186 179 175 179 177 181 195 190 196 198
212 216 197 200 201 198 204 192 216 190 205 181 193 195 200 200 192 183 188 190 187 181 184 182 181 181 180 182 174 183 182 184 174 176 175 180 178 187 200 193 200 191 185
222 212 199 199 199 194 187 188 195 179 191 194 182 187 197 190 192 196 187 180 173 174 184 179 178 174 164 172 181 181 180 176 173 180 186 184 199 196 199 182 186 183 181
226 203 195 202 198 191 190 194 188 213 189 194 188 180 180 190 190 182 178 177 180 180 176 174 176 179 177 177 180 177 175 189 186 185 185 201 208 190 187 182 182 183 173
224 206 197 200 195 196 191 189 189 187 190 202 196 188 184 177 176 186 189 189 183 179 176 181 179 173 176 180 180 182 188 189 210 200 191 185 184 184 184 178 172 169 184
216 206 174 195 202 195 193 191 189 189 188 208 185 194 208 195 187 185 181 176 178 187 191 192 192 186 183 186 188 193 193 200 189 186 183 180 184 188 171 191 184 183 188
194 206 213 200 194 199 191 191 186 188 193 188 187 181 166 162 161 192 194 195 198 199 193 183 184 188 193 184 176 188 182 178 184 182 191 192 187 182 187 186 183 184 177
205 203 206 182 207 195 193 198 186 191 193 192 191 187 182 184 198 188 183 182 180 193 174 196 191 169 184 183 182 184 188 180 167 182 183 187 176 181 190 191 190 188 201
204 184 181 201 224 218 194 191 198 196 196 188 183 195 196 196 185 183 186 180 189 182 183 170 182 175 182 180 184 186 185 184 184 196 171 173 188 190 187 191 186 203 199
206 203 199 186 211 210 206 189 189 188 181 189 197 197 200 189 195 193 182 185 192 193 195 224 203 193 196 194 200 197 190 192 191 183 193 191 197 200 220 204 209 213 205
215 193 202 195 190 211 211 197 193 196 194 192 193 194 190 189 206 202 206 206 206 186 217 163 197 199 200 182 194 208 222 191 197 217 205 200 209 215 197 218 219 204 219
203 203 213 190 193 189 193 210 195 209 208 183 185 194 206 210 205 201 203 208 213 204 177 206 224 227 193 211 238 229 196 235 227 208 226 225 214 205 212 229 204 205 214
211 214 198 193 190 201 198 200 205 198 192 197 196 208 209 207 201 204 185 196 176 213 212 193 197 215 214 214 199 230 219 206 218 211 210 231 231 220 222 222 234 232 224
223 191 209 208 215 219 220 205 200 199 207 193 198 194 194 203 204 207 215 206 205 205 204 214 205 223 225 230 225 212 220 217 227 226 235 217 222 215 238 227 233 224 226
227 227 223 202 201 213 214 199 207 205 213 202 214 201 204 212 204 219 225 221 202 201 197 210 215 218 224 223 208 212 230 234 208 221 225 239 235 227 231 229 225 231 246
207 210 215 243 220 218 224 214 203 219 203 212 212 204 214 222 222 217 213 216 220 218 212 222 214 213 197 220 226 216 225 200 217 237 225 222 237 229 230 227 238 242 254
233 238 227 240 231 241 237 240 240 237 220 229 223 225 222 225 216 209 213 223 226 229 227 227 227 227 227 218 205 213 233 236 229 235 227 244 239 238 244 246 255 237 252
252 249 239 228 236 230 226 228 228 231 243 234 228 229 228 234 229 227 226 235 223 224 232 236 223 220 232 238 231 222 225 221 235 240 237 232 237 249 265 257 250 260 258
261 251 249 248 241 237 240 240 211 221 234 211 239 241 238 239 239 243 190 187 227 236 236 241 239 238 217 225 235 232 236 244 252 252 241 262 254 253 243 249 298 256 328
276 287 267 261 259 248 253 254 254 250 248 248 238 237 234 217 215 212 211 218 219 220 247 234 257 253 251 250 241 248 243 252 257 267 255 244 277 255 304 295 327 472 464
269 281 265 266 272 250 240 249 258 256 245 241 239 242 250 246 251 247 238 236 239 236 248 251 256 250 239 241 252 262 246 245 266 272 261 309 291 305 380 377 359 450 437

GFSGL_2pvu_pres_102.txt.gz
Presure
204 198 217 200 193 214 199 198 241 261 248 242 209 207 206 212 188 222 226 231 227 217 205 210 198 198 206 209 206 180 183 172 186 171 167 174 177 161 171 161 172 174 165
220 177 180 200 196 214 185 230 250 252 239 228 202 208 216 247 227 217 217 204 222 219 212 213 209 201 202 190 200 182 181 179 183 185 166 166 172 176 174 177 172 166 172
211 204 219 204 202 204 199 225 242 260 227 201 211 210 265 211 219 217 201 216 224 223 213 204 200 206 200 194 206 191 181 173 167 179 185 179 169 162 172 177 168 192 166
209 196 195 188 188 202 243 251 248 228 213 206 204 253 230 211 198 207 204 197 201 210 207 204 196 207 215 198 188 194 190 181 177 176 174 188 172 182 167 185 185 183 173
213 212 217 223 215 222 249 248 245 220 205 204 203 240 213 198 211 206 204 206 211 211 203 202 194 192 216 212 191 182 189 204 191 183 180 184 188 180 178 167 181 172 178
206 223 185 213 219 248 286 256 227 220 202 197 194 224 217 219 220 201 201 204 196 198 194 193 205 199 215 212 211 200 195 188 184 192 183 195 188 188 193 183 171 183 180
215 222 197 226 237 276 281 253 225 213 200 199 193 186 186 195 215 200 204 201 197 197 196 196 196 200 204 208 204 211 204 203 210 201 193 175 178 194 179 182 175 179 187
217 219 221 241 261 261 277 243 222 207 204 197 196 173 201 223 202 202 217 200 194 195 181 196 197 200 202 196 199 194 208 199 193 173 194 193 180 178 182 178 180 182 182
220 232 236 257 261 260 266 230 222 205 198 200 194 190 201 217 195 203 199 196 209 192 197 199 186 185 197 203 194 184 191 205 189 184 176 182 178 180 180 182 178 180 178
235 255 240 247 268 278 256 223 218 204 194 209 200 195 185 205 196 185 199 191 206 200 195 196 196 195 197 191 188 188 189 190 188 184 189 189 180 184 184 186 172 183 191
242 240 248 255 258 278 254 221 215 206 204 195 202 221 205 201 203 198 188 190 199 197 205 206 193 198 193 195 204 196 189 189 188 186 183 185 187 175 180 183 180 184 185
239 252 253 260 257 280 252 212 213 203 203 195 206 206 187 225 205 186 201 191 187 184 181 179 181 190 188 186 189 186 187 185 183 183 181 183 180 171 172 173 184 170 175
252 263 274 243 255 282 244 215 210 206 208 199 202 201 199 215 196 189 185 187 190 193 190 182 180 180 180 177 178 179 180 179 181 186 179 176 180 187 183 181 187 165 183
258 262 253 258 248 238 230 224 214 208 202 203 203 198 200 194 190 197 182 190 183 182 184 187 187 171 184 172 173 175 178 179 176 173 169 182 183 187 190 193 201 202 202
253 253 251 267 227 225 243 223 214 209 202 200 199 198 175 199 197 194 190 203 197 200 200 195 189 186 185 181 182 185 184 186 189 189 191 196 187 193 187 195 188 187 197
265 256 261 239 241 237 236 229 199 210 210 206 204 195 195 189 192 200 194 195 192 191 188 185 184 186 201 202 203 202 201 203 203 201 195 199 201 197 199 199 199 200 193
264 265 250 240 236 248 242 234 223 223 222 216 209 199 196 203 195 194 193 205 203 194 194 193 195 195 200 196 183 198 194 202 202 201 194 210 206 209 203 205 235 225 220
258 246 243 239 234 231 246 238 227 234 208 234 219 217 217 197 202 205 193 196 196 193 198 208 204 195 202 200 201 205 190 202 213 202 219 210 227 235 209 228 212 222 201
262 241 241 236 228 243 245 243 224 208 204 222 235 234 222 225 212 206 232 220 216 207 220 217 207 214 204 205 205 204 223 225 213 220 202 213 220 180 218 214 209 210 218
249 257 234 237 241 238 244 239 236 241 222 221 224 210 234 230 237 216 225 221 242 228 222 239 236 233 231 248 242 235 227 231 226 226 225 216 223 207 210 225 226 227 213
262 257 240 250 251 246 245 244 234 238 247 232 212 240 228 218 216 237 235 229 240 236 232 215 214 217 216 217 221 226 208 220 220 208 216 227 223 223 227 215 212 217 230
255 262 264 245 262 253 235 249 227 240 238 234 239 236 233 246 228 225 234 228 236 244 230 225 238 225 210 232 230 228 229 231 230 241 219 218 217 206 212 233 237 234 239
305 309 303 267 260 265 255 241 250 254 239 244 229 227 232 244 223 227 221 229 220 212 222 207 224 216 239 216 218 219 224 224 220 216 207 212 235 239 233 223 227 218 237
317 314 316 320 324 317 287 290 259 248 234 257 253 237 232 235 237 244 246 246 251 246 241 241 239 230 233 239 243 236 237 246 236 239 241 223 213 226 224 223 230 243 247
312 353 325 327 332 339 325 335 332 301 276 262 246 255 263 255 250 247 252 251 249 245 242 229 232 234 229 240 239 238 240 242 241 241 230 239 244 246 243 253 243 261 256
342 350 362 399 405 371 340 355 339 347 347 340 313 295 280 277 279 258 267 256 257 268 264 263 248 250 250 251 251 255 255 256 250 244 250 256 255 245 240 234 241 272 261

GFSGL_2pvu_pres_108.txt.gz
Presure
251 256 197 209 205 206 205 211 196 196 190 189 184 178 198 199 201 208 205 205 276 266 226 216 218 208 201 203 190 200 201 193 186 206 208 215 200 188 179 184 182 167 178
247 211 224 188 204 188 205 174 202 190 203 197 199 191 198 205 206 204 218 224 264 231 214 215 207 209 156 202 195 192 192 190 186 228 209 196 200 203 198 185 179 183 173
225 209 201 203 209 201 186 209 190 194 194 199 198 205 202 205 201 189 197 264 246 219 204 211 206 206 202 200 203 194 198 185 183 207 207 182 195 199 199 202 190 183 181
220 208 206 204 198 212 208 214 204 193 196 190 181 188 211 209 202 197 212 260 234 212 206 209 208 210 201 199 230 218 237 220 201 193 198 203 206 191 206 215 191 178 179
219 205 210 200 205 195 191 196 196 199 201 188 192 196 200 195 191 215 209 254 227 206 208 205 231 220 255 267 244 231 234 219 208 203 193 191 190 191 196 203 209 202 209
216 213 210 203 200 191 203 203 208 193 194 191 191 200 206 193 205 190 253 252 221 204 199 238 221 227 214 233 222 222 205 204 202 196 200 206 213 211 194 195 187 197 205
207 203 206 209 198 188 193 193 184 212 205 215 214 206 199 197 183 230 216 254 212 203 252 227 220 207 205 215 218 200 215 204 194 197 191 192 201 197 200 208 195 193 197
207 214 212 194 193 202 210 218 204 200 193 192 200 200 192 224 214 231 294 251 207 242 229 216 207 205 204 215 205 215 212 203 202 199 195 201 195 199 209 204 198 194 191
202 201 205 202 209 197 200 213 207 206 198 211 162 201 209 207 225 253 295 242 201 231 208 208 207 180 201 200 203 201 195 199 201 197 186 191 194 195 191 199 214 204 200
204 206 197 194 212 217 209 203 204 204 212 209 195 208 211 223 239 292 270 230 204 223 213 204 203 210 201 209 198 204 201 198 201 192 193 190 192 195 194 197 195 206 213
204 205 202 205 201 191 205 202 204 211 207 207 203 210 214 224 226 287 257 232 206 225 208 199 204 208 180 212 199 199 204 203 206 196 199 200 196 188 199 206 186 192 202
213 200 204 195 201 199 204 207 207 205 204 209 213 217 217 241 228 270 255 230 204 207 198 199 199 204 214 210 199 196 198 197 186 193 193 191 189 194 195 205 200 191 188
208 212 211 204 215 211 208 208 208 210 215 212 217 192 199 229 249 253 251 230 203 207 195 204 191 204 207 214 179 194 194 199 198 183 202 202 199 201 190 198 193 192 190
224 226 216 212 211 216 216 214 213 133 216 218 213 222 229 227 252 262 244 230 215 204 202 202 192 197 206 213 194 198 193 193 200 201 186 191 191 189 193 199 199 198 195
227 224 220 219 221 224 226 224 226 223 221 227 228 225 235 249 250 261 252 233 219 209 205 202 202 190 193 195 194 198 186 192 192 190 192 190 180 180 191 195 192 190 197
232 220 225 227 226 226 226 227 230 229 227 227 236 244 248 253 256 266 255 219 226 227 207 209 199 204 185 191 188 200 194 200 195 187 191 194 192 190 192 185 181 181 191
235 232 232 236 236 250 246 241 247 250 247 249 252 241 257 265 280 279 264 258 234 227 224 203 200 199 229 193 194 208 195 195 195 197 201 201 180 194 205 204 205 208 205
249 254 250 252 251 242 240 248 250 237 243 237 260 267 263 255 267 272 260 254 241 232 227 223 206 211 187 205 213 219 193 198 203 191 195 197 184 183 181 183 185 185 184
246 242 246 247 254 246 250 246 251 251 258 252 251 266 261 260 256 263 257 256 253 252 233 209 222 221 210 207 204 214 218 214 208 210 211 213 212 211 210 210 214 211 203
268 265 260 258 258 260 260 261 260 263 263 258 253 258 260 263 255 250 255 263 253 257 258 239 230 227 218 216 216 213 202 198 214 203 201 190 187 212 213 213 212 211 202
321 321 321 305 300 287 275 272 268 271 253 266 260 261 260 265 266 260 257 260 252 264 267 257 241 238 228 230 226 213 209 214 217 216 217 217 220 219 218 218 216 215 198
288 287 290 297 298 306 304 318 323 329 330 303 287 271 264 269 272 273 263 276 260 255 258 267 261 252 245 241 236 234 230 230 228 219 213 214 211 198 202 204 211 213 215
286 288 289 287 292 294 298 302 305 307 310 323 306 301 320 344 295 277 275 283 269 274 280 279 270 268 252 266 251 251 246 242 243 235 229 228 215 214 224 225 223 223 219
301 306 310 315 320 327 333 340 344 347 347 353 356 336 369 347 343 339 341 303 285 289 276 287 289 279 269 269 270 270 259 265 264 251 240 240 242 240 237 236 243 243 241
313 318 320 322 322 325 334 344 354 364 380 398 416 421 425 427 433 437 381 354 350 349 316 296 288 296 282 277 270 270 271 269 269 268 270 273 272 268 267 265 268 269 270
320 322 324 329 337 350 368 432 510 504 499 496 493 488 482 479 477 473 472 471 470 399 362 355 355 327 322 297 291 284 283 283 274 273 270 268 266 266 270 272 252 251 246

GFSGL_2pvu_pres_111.txt.gz
Presure
278 268 266 309 231 237 236 238 204 204 201 209 208 208 199 199 183 187 194 197 185 197 195 211 213 282 256 238 225 212 218 222 207 210 178 181 183 181 179 187 187 197 186
271 264 248 233 237 193 241 221 224 213 181 209 201 191 194 198 193 202 189 190 208 194 214 201 244 276 245 241 223 216 205 213 206 205 212 181 186 191 179 189 169 189 196
293 262 243 231 231 216 230 212 225 214 205 203 199 197 186 193 196 194 194 198 207 207 206 199 208 266 231 228 222 218 205 200 205 200 193 203 202 191 203 211 206 218 185
263 252 247 232 230 211 212 193 191 201 200 203 199 191 184 194 188 197 195 211 215 216 201 212 220 260 218 213 213 210 212 207 200 200 194 191 198 190 190 206 208 209 201
259 255 226 254 222 215 202 193 195 191 203 190 205 201 203 192 193 209 200 191 190 194 191 210 206 264 228 209 207 204 200 206 201 191 198 192 193 192 184 183 210 211 193
258 246 234 229 224 203 199 203 197 181 190 205 189 192 200 195 201 188 205 218 188 186 202 193 223 259 229 214 209 206 209 203 201 197 193 193 187 192 197 193 196 200 199
241 238 233 209 206 210 201 195 197 190 188 208 206 207 208 199 199 201 198 195 204 208 212 197 220 256 230 212 205 202 225 245 251 247 252 219 230 208 204 197 199 194 188
233 223 215 211 209 200 201 194 203 197 197 197 197 203 193 196 207 197 198 206 216 213 181 216 219 261 231 216 200 226 221 237 238 228 233 231 220 215 211 202 192 194 201
221 212 219 201 212 202 201 203 207 198 199 187 196 202 194 188 192 207 210 215 208 199 190 204 247 258 226 214 210 220 217 213 212 210 226 217 201 195 202 200 199 201 191
213 214 211 205 205 211 207 202 207 208 200 206 204 203 200 210 211 206 204 202 210 214 194 229 261 263 218 227 222 214 212 217 207 216 208 215 208 208 201 204 206 185 201
214 206 204 209 207 201 207 206 214 183 203 218 201 205 211 210 210 213 205 213 215 207 220 219 279 256 214 230 210 211 208 212 187 211 210 206 184 187 203 199 195 198 197
208 216 217 211 208 205 201 201 197 196 197 200 203 208 220 212 207 209 207 208 223 216 234 226 255 264 212 215 218 214 205 208 206 197 202 197 202 210 201 196 196 196 201
214 203 204 211 214 210 205 203 203 206 214 215 217 214 214 206 212 209 211 212 213 225 228 222 239 269 214 211 207 215 207 203 200 203 182 200 193 196 205 186 197 208 183
215 214 215 199 204 208 206 205 198 201 200 196 212 202 199 211 201 205 223 215 223 224 223 212 238 244 253 208 207 218 208 205 200 203 204 211 194 209 193 195 193 191 187
214 217 212 215 216 213 209 208 209 209 209 211 208 208 208 211 214 216 214 212 225 212 216 237 245 228 277 219 206 213 206 207 203 198 202 205 213 192 185 188 192 198 194
232 219 219 215 209 204 204 206 214 215 216 207 213 213 207 220 217 213 223 227 218 228 230 233 236 252 270 248 214 203 206 221 206 206 200 199 204 213 177 189 205 188 182
256 226 236 227 221 216 218 221 223 219 224 226 226 225 222 224 224 222 229 231 232 238 231 231 251 261 258 277 210 215 210 204 224 195 203 205 210 195 203 210 195 194 194
241 244 240 237 240 240 238 231 232 228 228 229 236 237 237 241 240 239 239 234 238 238 248 255 259 247 267 267 255 237 215 215 204 209 208 205 200 204 204 199 188 182 185
256 249 249 247 251 253 250 249 249 248 242 250 248 246 248 245 242 247 249 256 260 253 264 255 243 266 278 273 286 249 239 227 214 216 205 207 204 204 207 205 204 204 205
327 311 271 268 268 268 268 272 264 266 271 270 273 273 268 266 270 269 268 262 259 264 260 260 269 276 274 271 289 277 253 241 237 226 213 213 215 213 207 197 195 205 195
304 306 308 308 309 315 317 322 330 323 280 279 278 271 268 265 266 263 270 270 269 268 270 270 277 267 276 273 272 287 275 259 242 241 233 237 227 210 213 214 216 217 231
284 285 288 290 293 295 298 303 306 309 312 316 320 325 330 334 342 329 326 308 295 283 269 276 275 270 269 279 276 273 281 269 271 252 243 239 236 231 231 231 218 217 216
269 270 270 274 277 280 286 290 299 335 356 363 353 346 326 326 321 321 326 326 322 330 336 305 291 279 277 266 274 277 277 282 267 268 262 251 247 239 234 229 224 214 214
263 264 267 281 293 300 307 321 351 363 368 373 378 382 385 389 388 384 370 360 355 352 339 330 334 350 307 293 283 277 280 280 280 274 279 273 273 276 260 254 248 241 239
277 279 285 286 295 310 342 359 365 397 535 518 506 501 513 516 512 508 506 504 504 502 502 368 357 363 333 340 361 313 292 287 285 283 282 275 279 279 268 283 278 265 254
275 275 280 301 317 353 362 517 506 491 467 447 439 435 445 451 468 484 480 479 478 478 479 479 479 480 425 379 361 367 345 352 326 287 293 285 284 282 282 279 278 282 284

GFSGL_2pvu_pres_114.txt.gz
Presure
322 327 347 387 385 372 359 239 292 293 258 229 202 221 211 202 195 185 184 187 196 195 194 190 200 194 189 198 209 219 286 285 239 216 224 210 222 208 195 194 194 183 186
292 292 285 302 369 350 344 333 302 314 175 216 193 210 212 195 205 200 201 184 189 183 192 201 188 203 180 210 202 267 290 261 243 219 223 215 215 207 204 179 191 175 181
277 267 270 258 282 266 327 273 191 240 212 199 234 179 207 203 199 200 182 184 190 200 184 184 200 200 204 196 209 234 261 248 237 220 215 224 232 215 203 203 189 184 178
263 242 258 242 242 242 249 245 239 222 171 192 202 201 185 180 182 197 195 195 185 190 189 189 204 204 212 200 205 203 255 245 229 223 211 215 222 223 207 189 183 186 180
254 240 253 240 250 238 220 233 186 210 228 212 176 190 202 201 188 184 193 193 191 187 199 192 176 190 189 185 201 197 219 243 239 223 212 210 207 202 203 200 209 184 190
262 260 234 239 229 228 221 215 219 202 215 212 201 193 200 185 201 199 196 200 191 186 197 193 209 200 186 194 213 201 208 266 219 212 210 215 203 193 196 197 189 194 194
246 244 235 237 235 223 222 226 183 207 202 198 195 191 197 194 199 198 199 211 209 210 204 194 191 201 187 200 215 195 207 248 247 208 207 204 198 202 202 186 190 189 191
238 233 233 238 227 211 206 214 210 201 203 202 195 195 189 201 191 194 202 203 205 204 203 201 199 194 205 204 222 197 207 207 244 226 208 203 205 202 201 196 194 191 185
222 227 228 223 213 225 220 207 199 201 201 182 199 198 167 190 192 190 195 189 206 207 197 205 207 206 214 219 200 192 204 281 250 228 211 202 205 259 233 243 204 200 200
221 235 232 228 223 217 220 195 215 204 196 195 192 194 193 199 194 185 193 194 193 201 209 199 191 205 197 213 185 189 187 279 246 226 218 200 226 227 218 219 235 227 211
243 235 224 224 219 217 214 213 221 203 203 206 210 206 203 204 193 201 206 207 203 203 205 199 204 215 203 198 215 186 214 245 242 220 230 211 215 216 209 218 223 221 224
211 226 219 219 209 214 206 204 202 208 209 194 180 194 203 199 183 203 207 206 216 212 198 198 210 214 213 218 199 233 240 223 248 218 230 221 210 213 208 203 210 214 209
217 224 218 215 206 213 210 201 204 215 200 201 209 207 202 207 197 193 207 193 194 202 202 200 217 228 218 206 214 215 214 235 244 220 211 217 209 213 204 212 202 214 188
215 224 222 217 212 213 210 215 208 202 201 201 202 203 200 201 211 206 205 202 209 213 215 198 219 202 210 215 210 230 229 233 227 224 211 204 216 202 211 202 197 201 207
224 208 217 218 215 203 211 218 215 210 207 210 210 207 214 210 207 206 209 201 193 206 205 211 208 211 214 219 216 231 229 205 239 251 213 206 204 212 201 210 203 194 199
226 231 222 205 208 212 220 216 209 206 212 215 209 211 213 212 207 212 218 206 204 210 213 224 218 213 220 215 210 216 226 211 226 245 229 222 206 205 208 205 201 198 200
237 215 222 232 228 215 206 208 208 211 218 217 214 204 204 204 212 217 217 217 217 217 216 215 214 221 214 213 231 234 239 224 232 239 246 226 272 206 209 204 207 207 195
259 246 242 216 221 234 234 231 218 222 215 215 215 217 223 223 222 220 215 214 217 215 218 223 217 222 222 230 233 228 223 236 242 246 248 232 260 284 212 213 208 207 209
247 249 263 256 222 238 230 231 237 239 237 233 228 228 226 228 228 230 232 230 226 226 227 232 234 235 230 233 235 239 245 249 243 241 251 256 263 271 270 219 215 216 208
318 312 326 315 309 263 269 258 260 258 239 242 244 233 238 238 239 240 242 245 242 244 248 247 247 248 246 249 253 254 250 249 251 255 256 266 274 278 258 279 235 217 214
295 298 302 305 309 313 316 317 321 328 331 295 269 284 265 263 262 263 264 263 262 260 262 264 261 261 262 265 262 265 266 264 263 265 274 276 274 266 270 286 283 243 235
280 279 279 279 281 283 286 288 290 292 296 300 305 310 316 322 331 336 345 350 353 358 360 334 325 299 295 297 290 287 287 284 279 273 274 273 272 268 278 285 281 275 257
261 263 265 270 271 274 283 290 296 301 304 308 315 322 336 382 409 414 480 479 449 386 387 348 353 354 352 353 353 333 304 292 289 283 279 272 271 268 276 280 286 277 278
264 267 271 275 277 278 279 281 281 289 314 344 391 404 524 511 501 483 474 470 470 475 487 514 521 503 404 395 365 347 335 338 343 348 358 316 291 281 280 278 280 282 278
259 265 269 268 272 274 278 304 323 370 378 517 482 472 462 449 440 436 436 434 435 437 438 453 468 493 496 499 501 502 392 361 355 347 329 330 364 321 303 286 286 279 286
263 271 268 269 277 299 313 344 367 424 472 457 443 435 418 411 410 411 410 409 420 435 427 421 449 458 472 474 476 478 479 478 479 405 355 354 363 332 310 340 307 293 288

GFSGL_2pvu_pres_117.txt.gz
Presure
310 318 327 345 395 458 523 500 478 392 227 273 171 201 235 220 253 223 191 206 201 197 194 197 195 194 191 193 185 187 192 189 184 196 210 272 297 243 242 212 210 213 195
285 295 302 303 314 428 482 275 254 440 218 215 216 213 265 253 214 236 173 195 189 199 201 192 194 203 194 192 192 194 199 183 203 197 215 285 293 259 232 240 215 214 204
266 275 285 274 287 328 322 252 235 245 237 226 195 200 139 238 223 209 180 204 196 197 198 204 186 168 178 180 192 191 185 200 204 193 226 266 280 257 234 221 213 206 204
254 258 267 271 258 252 308 258 240 234 240 202 249 207 161 227 234 206 214 203 189 181 197 190 162 187 178 179 181 194 204 208 217 193 202 232 250 251 226 220 224 215 209
248 255 258 244 252 241 250 237 280 280 275 219 212 199 170 237 217 171 201 181 170 184 180 192 187 175 177 193 197 204 191 212 190 191 195 207 222 226 237 222 219 224 215
235 243 249 242 233 252 251 244 263 227 241 224 221 232 230 213 207 202 197 193 193 186 185 201 198 174 197 200 188 183 197 175 185 182 210 200 213 239 229 229 217 220 228
238 235 229 251 239 236 241 238 236 225 230 227 228 209 171 204 193 200 202 190 172 194 185 190 191 204 205 202 201 190 188 194 202 183 199 219 207 221 251 237 228 208 209
238 235 239 236 238 228 225 222 225 224 220 218 195 196 204 184 193 194 165 182 201 190 191 206 198 197 193 194 196 185 209 187 204 205 188 229 213 204 265 222 213 217 198
232 228 220 235 223 229 219 214 213 207 206 191 212 209 205 200 193 158 183 193 195 195 206 207 207 203 199 198 200 210 205 201 194 207 212 204 221 213 279 237 203 202 206
238 227 234 233 220 221 230 213 196 211 194 205 197 206 179 202 195 160 192 192 160 163 201 181 192 193 206 192 202 207 210 203 198 201 200 217 193 202 273 231 219 201 202
241 238 231 226 213 227 243 215 210 211 206 221 207 193 192 203 205 192 205 197 185 188 192 187 187 203 196 190 193 209 193 210 193 201 210 218 205 194 257 236 224 215 200
224 233 230 216 216 224 232 214 218 207 201 222 199 225 203 206 205 212 203 206 201 204 211 212 214 206 201 201 196 208 222 204 205 205 207 216 210 217 227 247 231 216 208
238 223 200 218 221 224 211 216 206 216 214 202 210 199 197 196 197 201 185 194 190 190 196 186 210 192 203 184 202 200 211 208 209 207 204 230 195 219 220 239 218 215 205
228 232 221 220 224 219 221 220 212 215 210 215 210 197 202 198 212 199 198 197 203 193 197 211 195 199 210 193 209 215 205 205 201 211 216 225 221 197 218 238 231 211 219
235 229 228 220 223 223 220 213 222 214 219 203 214 214 213 215 215 214 207 199 193 207 210 199 211 204 213 208 212 213 204 214 213 214 220 216 199 230 212 214 223 209 204
216 231 228 206 226 225 230 225 214 219 216 213 212 205 212 211 208 211 205 212 213 212 214 203 204 205 206 201 210 216 215 207 210 212 214 215 225 242 229 202 233 233 216
230 215 230 234 195 229 226 231 226 216 219 217 218 215 216 222 215 215 217 220 223 217 211 212 221 225 223 219 219 214 220 222 223 216 214 237 232 237 222 240 233 217 246
247 249 203 194 231 235 232 210 217 229 232 227 208 208 211 218 217 215 212 214 213 215 215 215 223 223 224 226 229 226 228 229 225 226 230 228 228 223 233 226 235 200 192
262 265 253 236 240 211 233 244 226 228 231 220 216 234 231 227 230 228 226 224 222 222 226 227 226 226 230 229 227 227 232 231 226 230 236 240 229 228 227 226 228 230 209
308 311 332 336 340 343 329 258 221 215 217 215 225 225 230 240 240 238 237 236 238 238 240 240 239 238 238 239 240 240 240 239 234 235 238 234 233 234 232 241 243 240 233
294 294 293 291 291 294 299 303 306 311 314 270 244 237 238 246 254 239 242 241 244 249 251 252 249 249 249 248 250 250 250 249 251 248 246 245 247 245 242 243 247 247 249
269 271 272 271 271 270 272 275 278 282 286 290 296 298 312 314 306 284 268 251 271 275 280 279 274 270 274 273 271 267 271 267 258 256 256 254 250 251 253 253 251 256 253
264 261 259 258 260 268 271 270 275 279 285 292 294 295 300 308 319 386 434 432 498 494 491 485 482 479 479 482 448 420 297 290 284 282 280 279 277 274 272 268 268 267 263
252 253 255 254 261 263 263 266 269 278 283 286 311 358 402 493 490 467 454 445 442 446 450 447 444 441 444 451 453 456 464 502 528 527 494 341 341 349 348 354 356 353 352
250 260 257 261 258 259 262 265 275 291 298 328 359 405 473 444 420 411 402 404 427 446 429 416 417 421 424 425 425 446 439 443 458 505 507 507 506 411 384 361 337 341 343
253 251 260 260 257 257 265 277 291 301 323 349 438 450 420 401 391 387 475 474 470 462 453 448 443 435 427 429 427 423 434 427 443 468 480 485 487 489 491 428 380 370 361

GFSGL_2pvu_pres_123.txt.gz
Presure
330 332 319 319 325 324 326 336 347 355 354 324 306 317 295 279 285 292 205 192 176 188 186 171 173 166 235 231 217 170 205 201 199 188 193 182 183 182 196 201 183 184 192
278 283 280 285 285 281 289 293 295 308 321 333 364 409 331 310 300 292 216 211 190 168 189 203 193 192 207 265 204 225 213 210 191 192 192 197 190 185 201 200 175 193 198
272 263 267 270 264 267 266 269 275 364 448 347 344 363 388 393 327 296 199 193 223 206 223 216 166 197 186 257 210 189 209 205 200 190 195 191 192 195 189 192 191 205 186
248 244 247 257 262 255 252 269 282 382 439 428 456 434 387 384 308 213 212 218 220 202 215 180 200 221 234 213 207 213 205 205 201 184 201 184 166 197 204 196 198 182 201
241 249 255 251 249 258 260 258 244 283 291 336 381 340 360 380 235 220 200 207 207 164 204 164 149 205 238 220 203 201 213 189 191 202 180 186 182 191 189 192 190 199 195
237 244 249 231 256 240 237 259 252 249 266 278 308 305 270 295 215 231 194 209 199 199 155 182 163 159 226 224 183 201 168 211 170 209 200 181 189 193 191 194 200 204 191
236 237 241 244 237 237 237 234 249 250 250 253 266 271 274 186 214 189 202 202 197 189 174 168 201 216 152 223 207 183 145 182 198 195 200 198 190 203 201 174 190 188 180
226 237 241 224 238 228 243 249 256 241 246 272 259 268 228 201 197 207 211 215 183 190 212 213 212 230 257 215 167 199 201 201 199 202 199 199 177 211 195 193 192 190 187
232 238 243 246 227 221 249 246 237 234 223 227 237 261 189 217 225 219 219 206 227 213 181 184 235 202 227 178 217 189 202 192 195 192 178 163 175 200 194 198 207 202 196
230 231 226 239 224 223 235 241 234 238 211 251 209 201 230 236 214 238 215 202 206 210 238 218 234 210 219 199 212 201 175 202 190 163 205 189 198 196 203 189 192 192 201
219 218 229 231 236 226 228 228 244 241 238 229 227 240 210 218 206 192 207 216 227 192 169 191 195 193 220 181 215 200 200 188 194 202 188 171 205 204 192 200 201 202 199
227 221 221 225 220 228 228 239 230 227 228 228 233 230 217 223 189 222 215 225 210 187 180 210 214 184 197 195 204 216 211 190 208 206 192 196 198 203 212 206 202 209 211
216 227 235 195 223 223 234 228 231 230 225 226 225 231 221 217 213 214 233 206 203 206 208 207 213 203 197 175 162 163 208 191 185 222 213 207 203 203 192 202 210 174 198
224 238 228 239 221 218 215 215 238 209 226 226 218 217 221 217 222 218 204 194 187 198 192 198 218 212 215 193 198 197 226 217 208 206 195 190 210 203 203 192 198 197 200
221 244 250 231 208 217 180 211 213 212 215 233 223 216 231 224 211 218 208 224 212 227 219 235 223 222 218 210 202 214 207 220 215 208 209 211 210 223 225 214 213 223 214
248 229 251 234 205 208 239 238 218 219 234 225 219 223 197 213 228 214 209 218 221 215 222 212 222 223 213 215 231 197 217 213 211 220 215 204 211 216 220 227 200 192 188
227 241 202 243 232 224 200 241 231 217 251 220 231 207 219 233 219 218 230 214 212 225 226 229 227 241 218 218 213 225 232 224 217 213 218 231 213 212 232 211 213 231 223
239 230 238 241 239 237 217 202 240 221 200 229 204 215 231 230 221 221 219 209 209 232 227 229 214 227 229 228 230 238 226 224 236 231 228 228 224 226 227 227 225 226 235
253 254 300 290 290 287 300 233 263 256 241 226 250 237 242 224 230 193 193 209 212 234 230 234 238 241 234 232 234 248 231 242 235 236 241 254 254 251 234 217 238 235 235
275 277 324 292 293 293 294 293 298 334 279 245 241 240 244 254 244 242 222 241 217 223 228 236 239 242 244 248 246 245 245 245 247 250 248 245 247 250 251 248 244 243 245
308 313 314 317 318 318 314 315 316 316 315 314 312 311 281 312 254 247 243 261 261 257 238 240 249 246 245 270 253 264 239 260 264 241 242 242 241 241 248 251 249 246 247
309 302 294 297 300 304 300 298 297 296 295 293 293 293 293 293 297 300 303 309 311 283 319 312 287 262 255 260 269 268 272 274 275 277 271 267 263 260 260 261 261 258 261
302 296 290 291 293 283 282 285 280 279 276 275 276 277 277 277 277 278 280 281 283 291 304 305 309 318 328 339 418 458 311 308 309 294 292 291 292 286 284 280 277 273 269
303 292 297 295 281 286 280 273 270 267 266 266 264 265 261 257 260 276 285 282 287 294 297 308 460 472 457 447 440 436 433 428 428 473 488 498 492 480 460 442 424 424 314
298 289 293 294 290 276 271 266 262 262 261 257 256 259 246 259 273 281 284 291 301 324 410 467 454 441 429 423 422 426 466 474 472 470 466 464 477 472 465 451 442 437 432
297 287 304 303 282 268 262 265 253 254 257 263 266 265 261 275 279 283 299 316 356 453 451 435 425 418 419 455 448 465 469 465 463 460 455 447 445 459 456 449 440 435 433